STARLINK-36622

Last updated on Thu Mar 05 2026 00:02:08 GMT+0000 (Coordinated Universal Time)

1 67667U 26022V 26063.04895308 .00450382 00000+0 28383-2 0 9995 2 67667 97.2837 96.7873 0001976 156.5347 203.6009 15.75398908 4665
UTC large
Height (km)
Speed (km/s)
/
Latitude / Longitude
Inclination (degrees)
Orbital Period (minutes)
Azimuth
Elevation
Range (km)
Doppler Factor

Next 0 passes for location: London (51.5072 / 0.1276)

Sorry there are no passes over London.